Weather History for Whiting Fld NAS, FL

Change the Weather History Date:

Wednesday, November 21, 2012

  Actual Average Record
Temperature  
Mean Temperature 60 °F -  
Max Temperature 75 °F 66 °F 82 °F (2011)
Min Temperature 44 °F 47 °F 30 °F (2000)
Degree Days  
Heating Degree Days 6    
Growing Degree Days 10 (Base 50)    
Moisture  
Dew Point 49 °F    
Average Humidity 76    
Maximum Humidity 100    
Minimum Humidity 40    
Precipitation  
Precipitation 0.00 in - - ()
Sea Level Pressure  
Sea Level Pressure 30.12 in    
Wind  
Wind Speed 3 mph (NNW)    
Max Wind Speed 8 mph    
Max Gust Speed -    
Visibility 9 miles    
Events      
Averages and records for this station are not official NWS values.
T = Trace of Precipitation, MM = Missing Value Source: NWS Daily Summary

Daily Weather History Graph

Daily Weather History Graph

Search for Another Location

Airport:

Trip Planner

Search our weather history database for the weather conditions in past years. The results will help you decide how hot, cold, wet, or windy it might be!

Date:

Astronomy

Nov. 21, 2012 Rise Set
Actual Time 6:19 AM CST 4:47 PM CST
Civil Twilight 5:54 AM CST 5:13 PM CST
Nautical Twilight 5:24 AM CST 5:43 PM CST
Astronomical Twilight 4:55 AM CST 6:12 PM CST
Moon 12:41 PM CST (11/21) 12:03 AM CST (11/21)
Length of Visible Light 11h 19m
Length of Day
10h 28m
First Quarter, 62% of the Moon is Illuminated
Nov 21
First Quarter
Nov 28
Full
Dec 6
Last Quarter
Dec 13
New
Dec 19
First Quarter

Hourly Weather History & Observations

Time (CST) Temp. Windchill Dew Point Humidity Pressure Visibility Wind Dir Wind Speed Gust Speed Precip Events Conditions
12:56 AM 50.0 °F - 48.9 °F 96% 30.09 in 9.0 mi NNW 4.6 mph - N/A   Clear
1:56 AM 50.0 °F - 48.0 °F 93% 30.09 in 10.0 mi NNW 4.6 mph - N/A   Clear
2:56 AM 48.9 °F - 46.9 °F 93% 30.09 in 9.0 mi Calm Calm - N/A   Clear
3:56 AM 48.0 °F - 46.9 °F 96% 30.10 in 9.0 mi NNW 3.5 mph - N/A   Clear
4:56 AM 46.9 °F - 46.0 °F 97% 30.11 in 9.0 mi NNW 4.6 mph - N/A   Clear
5:45 AM 44.6 °F - 44.6 °F 100% 30.15 in 8.0 mi Calm Calm - N/A   Clear
5:56 AM 44.1 °F 42.5 °F 43.0 °F 96% 30.12 in 8.0 mi NNW 3.5 mph - N/A   Clear
6:56 AM 46.9 °F - 46.0 °F 97% 30.14 in 7.0 mi Calm Calm - N/A   Partly Cloudy
7:56 AM 57.0 °F - 50.0 °F 77% 30.15 in 10.0 mi NNW 4.6 mph - N/A   Scattered Clouds
8:56 AM 62.1 °F - 48.9 °F 62% 30.16 in 10.0 mi Variable 5.8 mph - N/A   Scattered Clouds
9:56 AM 68.0 °F - 51.1 °F 55% 30.15 in 10.0 mi Variable 3.5 mph - N/A   Clear
10:56 AM 72.0 °F - 50.0 °F 46% 30.13 in 10.0 mi Variable 4.6 mph - N/A   Clear
11:56 AM 73.0 °F - 48.9 °F 42% 30.11 in 10.0 mi NNW 6.9 mph - N/A   Partly Cloudy
12:56 PM 73.9 °F - 50.0 °F 43% 30.08 in 10.0 mi Variable 4.6 mph - N/A   Scattered Clouds
1:56 PM 75.0 °F - 50.0 °F 41% 30.07 in 10.0 mi North 6.9 mph - N/A   Scattered Clouds
2:56 PM 75.0 °F - 48.9 °F 40% 30.07 in 10.0 mi NNW 8.1 mph - N/A   Scattered Clouds
3:56 PM 73.0 °F - 50.0 °F 44% 30.07 in 10.0 mi NNW 5.8 mph - N/A   Partly Cloudy
4:56 PM 64.9 °F - 51.1 °F 61% 30.09 in 10.0 mi Calm Calm - N/A   Partly Cloudy
5:56 PM 57.9 °F - 50.0 °F 75% 30.10 in 9.0 mi Calm Calm - N/A   Clear
6:56 PM 54.0 °F - 50.0 °F 86% 30.12 in 9.0 mi Calm Calm - N/A   Clear
7:56 PM 53.1 °F - 50.0 °F 89% 30.13 in 8.0 mi Calm Calm - N/A   Clear
8:56 PM 51.1 °F - 50.0 °F 96% 30.14 in 8.0 mi Calm Calm - N/A   Clear
9:56 PM 51.1 °F - 48.9 °F 92% 30.14 in 7.0 mi NW 3.5 mph - N/A   Clear
10:56 PM 50.0 °F - 48.9 °F 96% 30.14 in 7.0 mi Calm Calm - N/A   Clear
11:56 PM 52.0 °F - 50.0 °F 93% 30.14 in 7.0 mi Calm Calm - N/A   Clear